User: anonymous
Location: Dover
(39.1580°N, 75.5250°W)
Time: 15:58:30
(UTC-04:00)
Language:

Cosmos 1437 Rocket - Orbit

View from above orbital plane
View from above orbital plane
View from above satellite
View from above satellite

Ground track
Ground track

The orbit data is extracted from the following two-line orbital elements,

1 13771U 83003B   14204.34516532  .00000413  00000-0  26264-4 0   817
2 13771 081.1578 142.8495 0028928 270.5207 089.2701 15.06347207713997
Epoch (UTC): 23 July 2014 08:17:02
Eccentricity: 0.0028928
inclination: 81.1578°
perigee height: 527 km
apogee height: 567 km
right ascension of ascending node: 142.8495°
argument of perigee: 270.5207°
revolutions per day: 15.06347207
mean anomaly at epoch: 89.2701°
orbit number at epoch: 71399

The dashed part of the orbit path shows where the satellite is in the earth's shadow,  

DLR